#timestamp,LO_Frequency,Hit 
1506384015.3,286047006.6,N
1506384035.1,286047008.8,N
1506384055.9,286047004.7,N
1506384075.7,286047005.9,N
1506384095.5,286047004.8,N
1506384115.3,286047005.1,N
1506384135.2,286047004.1,N
1506384155.0,286047003.4,N
1506384155.9,286047003.4,N
1506384175.7,286047003.4,N
1506384195.6,286047001.3,N
1506384215.4,286047000.6,N
1506384235.2,286046999.9,N
1506384255.1,286047003.9,N
1506384256.0,286047003.9,N
1506384275.8,286047004.4,N
1506384295.6,286047000.8,N
1506384315.5,286046998.1,N
1506384335.3,286046999.8,N
1506384355.1,286047000.0,N
1506384375.9,286046999.9,N
1506384395.7,286047001.8,N
1506384415.5,286047004.2,N
1506384435.3,286047004.0,N
1506384455.2,286047003.5,N
1506384475.0,286047006.3,N
1506384475.9,286047006.3,N
1506384495.7,286047005.9,N
1506384515.6,286047005.8,N
1506384535.4,286047006.0,N
1506384555.2,286047006.6,N
1506384575.1,286047010.6,P
1506384576.0,286047010.6,N
1506384595.8,286047008.7,N
1506384615.6,286047008.5,N
1506384635.5,286047003.3,N
1506384655.3,286047006.8,N
1506384675.1,286047003.2,N
1506384695.9,286047003.5,N
1506384715.7,286047005.7,N
1506384735.5,286047005.7,N
1506384755.4,286047007.3,N
1506384775.2,286047006.4,N
1506384795.0,286047007.2,N
1506384795.9,286047007.2,N
1506384815.8,286047007.6,P
1506384835.6,286046996.9,P
1506384855.4,286047000.4,N
1506384875.3,286047002.0,N
1506384895.1,286047004.0,N
1506384896.0,286047004.0,N
1506384915.8,286047007.6,N
1506384935.7,286047008.7,N
1506384955.5,286047003.6,N
1506384975.3,286046997.5,N
1506384995.1,286046998.0,N
1506385015.9,286046997.4,N
1506385035.7,286046999.0,N
1506385055.5,286046994.9,N
1506385075.4,286046998.6,N
1506385095.2,286047001.0,N
1506385115.0,286047000.9,N
1506385115.9,286047000.9,N
1506385135.8,286047000.8,N
1506385155.6,286046999.7,N
1506385175.4,286047002.7,N
1506385195.3,286047004.3,N
1506385215.1,286047004.0,N
1506385216.0,286047004.0,N
1506385235.8,286047006.1,N
1506385255.7,286047010.2,N
1506385275.5,286047010.7,N
1506385295.3,286047008.7,N
1506385315.1,286047007.3,N
1506385335.9,286047004.6,N
1506385355.7,286047005.2,N
1506385375.5,286047007.6,N
1506385395.4,286047004.6,N
1506385415.2,286047005.9,N
1506385435.0,286047004.0,N
1506385435.9,286047004.0,N
1506385455.8,286047003.6,N
1506385475.6,286047004.0,N
1506385495.4,286047005.1,N
1506385515.3,286047004.9,N
1506385535.1,286047003.7,N
1506385536.0,286047003.7,N
1506385555.8,286047004.7,N
1506385575.7,286047003.0,N
1506385595.5,286047002.8,N
1506385615.3,286047001.5,N
1506385635.2,286047007.5,N
1506385655.9,286047007.5,N
1506385675.7,286047005.2,N
1506385695.5,286047002.1,N
1506385715.4,286046998.4,N
1506385735.2,286046999.1,N
1506385755.0,286047000.3,N
1506385755.9,286047000.3,N
1506385775.8,286047002.5,N
1506385795.6,286047001.5,N
1506385815.4,286047002.0,N
1506385835.3,286047000.6,N
1506385855.1,286047002.7,N
1506385875.8,286047003.3,N
1506385895.7,286047008.4,P
1506385915.5,286047003.2,N
1506385935.3,286047008.4,P
1506385955.2,286047003.2,N
1506385975.9,286047002.3,N
1506385995.7,286046999.8,N
1506386015.6,286047000.2,N
1506386035.4,286046996.6,N
1506386055.2,286046999.5,N
1506386075.1,286046999.3,N
1506386076.0,286046999.3,N
1506386095.8,286046997.7,N
1506386115.6,286046997.8,N
1506386135.4,286046994.9,N
1506386155.3,286046998.9,N
1506386175.1,286047000.1,N
1506386195.8,286046998.6,N
1506386215.7,286047001.0,N
1506386235.5,286046998.9,N
1506386255.3,286046995.9,N
1506386275.2,286046997.0,N
1506386295.9,286047000.6,N
1506386315.7,286046999.7,N
1506386335.6,286047001.1,N
1506386355.4,286046995.7,N
1506386375.2,286046996.8,N
1506386395.0,286047000.4,N
1506386395.9,286047000.4,N
1506386415.8,286047005.1,N
1506386435.6,286047000.2,N
1506386455.4,286047001.5,N
1506386475.3,286046999.2,N
1506386495.1,286046996.6,N
1506386515.8,286046995.3,N
1506386535.7,286046998.9,N
1506386555.5,286046999.1,N
1506386575.3,286047002.5,N
1506386595.2,286047000.4,N
1506386615.9,286047000.8,N
1506386635.7,286047001.8,N
1506386655.6,286047001.3,N
1506386675.4,286047004.3,N
1506386695.2,286047003.0,N
1506386715.0,286047005.1,N
1506386715.9,286047005.1,N
1506386735.8,286047006.0,N
1506386755.6,286047001.6,N
1506386775.4,286046999.3,N
1506386795.3,286046995.5,N
1506386815.1,286046996.5,N
1506386835.8,286046999.4,N
1506386855.7,286047000.4,N
1506386875.5,286047003.9,N
1506386895.3,286047006.9,N
1506386915.2,286047009.2,N
1506386935.9,286047003.3,N
1506386955.7,286047005.4,N
1506386975.6,286047005.3,N
1506386995.4,286047005.2,N
1506387015.2,286047003.3,N
1506387035.0,286047003.5,N
1506387036.0,286047003.5,N
1506387055.8,286047004.5,N
1506387075.6,286047004.1,N
1506387095.4,286047006.3,N
1506387115.3,286047010.5,P
1506387135.1,286047006.5,N
1506387155.9,286047008.9,N
1506387175.7,286047008.0,N
1506387195.5,286047005.8,N
1506387215.3,286047004.2,N
1506387235.2,286047001.9,N
1506387255.0,286047005.9,N
1506387255.9,286047005.9,N
1506387275.7,286047006.0,N
1506387295.6,286047007.4,P
1506387315.4,286047002.1,P
1506387335.2,286047003.8,N
1506387355.1,286047001.9,N
1506387356.0,286047001.9,N
1506387375.8,286046999.9,N
1506387395.6,286046995.5,N
1506387415.5,286046994.0,N
1506387435.3,286046995.4,N
1506387455.1,286046996.1,N
1506387475.9,286046996.4,N
1506387495.7,286046997.2,N
1506387515.5,286046997.3,N
1506387535.4,286046998.3,N
1506387555.2,286047001.0,N
1506387575.0,286046997.4,N
1506387575.9,286046997.4,N
1506387595.8,286046992.0,N
